This demonstration page uses our WeatherBlox Daily Observations layout. Learn more.

Left ArrowRight Arrow

38.88101, -77.10428

Hourly Observations for January 12, 2015

Temp ( °F °C ) Dew Point ( °F °C ) Humidity (%) Winds ( mph kmh ) Pressure ( in mb ) Visibility ( mi km ) Precip ( " mm )
12:52 am 00:52 Cloudy with Light Rain 37 2.8 25 -3.9 62 62 N N/A 30.49 1033 10 16 N/A
1:52 am 01:52 Cloudy with Light Rain 36 2.2 27 -2.8 70 70 S 5 7 30.49 1032 10 16 0.02 0.51
2:10 am 02:10 Cloudy with Light Rain 36 2 27 -3 70 70 S 5 7 30.50 1033 10 16 N/A
2:44 am 02:44 Cloudy with Light Rain 36 2 27 -3 70 70 N N/A 30.48 1032 5 8 N/A
2:52 am 02:52 Cloudy with Light Rain 36 2.2 27 -2.8 70 70 N N/A 30.47 1032 5 8 0.03 0.76
3:01 am 03:01 Cloudy with Light Rain 36 2 27 -3 70 70 S 3 6 30.48 1032 5 8 0.01 0.25
3:10 am 03:10 Cloudy with Light Rain 36 2 28 -2 75 75 SSE 3 6 30.45 1031 5 8 N/A
3:52 am 03:52 Cloudy with Light Rain 36 2.2 30 -1.1 79 79 S 5 7 30.43 1031 7 11 0.01 0.25
4:06 am 04:06 Cloudy with Light Rain 36 2 30 -1 81 81 N N/A 30.42 1030 10 16 N/A
4:52 am 04:52 Cloudy 37 2.8 31 -0.6 79 79 N N/A 30.40 1030 10 16 N/A
5:52 am 05:52 Cloudy with Light Rain 37 2.8 32 undefined 82 82 N N/A 30.38 1029 6 10 N/A
6:52 am 06:52 Cloudy with Rain 36 2.2 32 undefined 86 86 S 5 7 30.37 1029 4 6 0.03 0.76
7:22 am 07:22 Cloudy with Light Rain 36 2 32 undefined 87 87 S 6 9 30.39 1029 4 6 N/A
7:52 am 07:52 Cloudy with Light Rain 36 2.2 32 undefined 86 86 SSE 8 13 30.35 1028 3 5 0.12 3.05
7:59 am 07:59 Cloudy with Light Rain 36 2 32 undefined 87 87 S 7 11 30.36 1028 3 4 0.01 0.25
8:05 am 08:05 Cloudy with Light Rain 36 2 32 undefined 87 87 S 5 7 30.36 1028 3 4 0.01 0.25
8:17 am 08:17 Cloudy with Light Rain 36 2 32 undefined 87 87 S 6 9 30.33 1027 2 3 0.03 0.76
8:25 am 08:25 Cloudy with Light Rain 36 2 32 undefined 87 87 S 6 9 30.33 1027 3 4 0.03 0.76
8:52 am 08:52 Cloudy with Light Rain 36 2.2 32 undefined 86 86 S 5 7 30.33 1027 3 4 0.04 1.02
9:52 am 09:52 Cloudy with Light Rain 36 2.2 32 undefined 86 86 S 6 9 30.31 1027 3 4 0.04 1.02
9:59 am 09:59 Cloudy with Light Rain 36 2 32 undefined 87 87 S 6 9 30.30 1026 3 5 0.01 0.25
10:13 am 10:13 Cloudy with Light Rain 37 3 32 undefined 81 81 S 6 9 30.30 1026 2 3 0.02 0.51
10:52 am 10:52 Cloudy with Light Rain 37 2.8 33 0.6 86 86 S 5 7 30.27 1025 3 5 0.04 1.02
11:03 am 11:03 Cloudy with Rain 37 3 34 1 87 87 S 6 9 30.27 1025 2 2 N/A
11:15 am 11:15 Cloudy with Light Rain 37 3 34 1 87 87 S 6 9 30.27 1025 2 3 0.04 1.02
11:21 am 11:21 Cloudy with Light Rain 37 3 34 1 87 87 S 6 9 30.27 1025 2 3 0.05 1.27
11:45 am 11:45 Cloudy with Light Rain 37 3 34 1 87 87 S 6 9 30.24 1024 2 3 0.06 1.52
11:52 am 11:52 Cloudy with Light Rain 37 2.8 33 0.6 86 86 S 6 9 30.23 1024 2 2 0.07 1.78
11:58 am 11:58 Cloudy with Light Rain 37 3 34 1 87 87 S 6 9 30.24 1024 2 2 N/A
12:52 pm 12:52 Cloudy with Light Rain 38 3.3 34 1.1 86 86 SSW 5 7 30.19 1022 2 3 0.05 1.27
1:52 pm 13:52 Cloudy with Light Rain 38 3.3 34 1.1 86 86 SSE 3 6 30.16 1021 2 3 0.07 1.78
2:36 pm 14:36 Cloudy with Light Rain 39 4 36 2 87 87 N N/A 30.15 1021 3 4 N/A
2:41 pm 14:41 Cloudy with Light Rain 39 4 36 2 87 87 N N/A 30.15 1021 3 5 0.06 1.52
2:52 pm 14:52 Cloudy with Light Rain 39 3.9 35 1.7 86 86 N N/A 30.14 1021 3 4 0.08 2.03
2:59 pm 14:59 Cloudy with Light Rain 39 4 34 1 81 81 N N/A 30.15 1021 2 2 N/A
3:17 pm 15:17 Cloudy with Light Rain 39 4 36 2 87 87 N N/A 30.15 1021 1 1 0.04 1.02
3:26 pm 15:26 Cloudy with Light Rain 39 4 36 2 87 87 N N/A 30.15 1021 1 2 N/A
3:34 pm 15:34 Cloudy with Light Rain 39 4 36 2 87 87 N N/A 30.15 1021 2 3 N/A
3:52 pm 15:52 Cloudy with Light Rain 39 3.9 36 2.2 89 89 N N/A 30.14 1021 3 4 0.07 1.78
3:57 pm 15:57 Cloudy with Light Rain 39 4 36 2 87 87 N N/A 30.15 1021 2 3 N/A
4:08 pm 16:08 Cloudy with Light Rain 39 4 36 2 87 87 NNE 3 6 30.15 1021 2 3 N/A
4:16 pm 16:16 Cloudy with Light Rain 39 4 36 2 87 87 NNE 5 7 30.15 1021 3 4 N/A
4:18 pm 16:18 Cloudy with Light Rain 39 4 36 2 87 87 NNE 5 7 30.15 1021 3 4 N/A
4:20 pm 16:20 Cloudy with Light Rain 39 4 36 2 87 87 NNE 5 7 30.15 1021 3 4 N/A
4:26 pm 16:26 Cloudy with Light Rain 39 4 36 2 87 87 N 5 7 30.12 1020 1 1 N/A
4:38 pm 16:38 Cloudy with Light Rain 39 4 36 2 87 87 N 6 9 30.12 1020 3 5 N/A
4:52 pm 16:52 Cloudy with Light Rain 40 4.4 36 2.2 86 86 N 6 9 30.14 1021 3 5 0.01 0.25
4:58 pm 16:58 Cloudy with Light Rain 39 4 36 2 87 87 NNE 5 7 30.15 1021 3 5 N/A
5:13 pm 17:13 Cloudy with Light Rain 39 4 36 2 87 87 N 5 7 30.15 1021 6 10 0.01 0.25
5:16 pm 17:16 Cloudy with Light Rain 39 4 36 2 87 87 N 3 6 30.15 1021 7 11 N/A
5:19 pm 17:19 Cloudy with Light Rain 41 5 37 3 87 87 N N/A 30.15 1021 7 11 0.01 0.25
5:52 pm 17:52 Cloudy with Light Rain 40 4.4 36 2.2 86 86 NNE 3 6 30.14 1021 6 10 0.03 0.76
6:52 pm 18:52 Cloudy 41 5 36 2.2 82 82 NNW 7 11 30.15 1021 9 14 N/A
7:52 pm 19:52 Cloudy with Light Rain 43 6.1 37 2.8 80 80 NNW 5 7 30.19 1022 10 16 N/A
8:52 pm 20:52 Cloudy with Light Rain 42 5.6 36 2.2 79 79 N 6 9 30.19 1022 6 10 0.02 0.51
9:52 pm 21:52 Cloudy with Light Rain 41 5 36 2.2 82 82 NNW 7 11 30.20 1023 6 10 0.01 0.25
10:52 pm 22:52 Cloudy 42 5.6 37 2.8 82 82 NW 7 11 30.25 1024 9 14 0.01 0.25
11:52 pm 23:52 Cloudy with Drizzle 42 5.6 36 2.2 79 79 NNW 8 13 30.27 1025 9 14 N/A

Powered by AerisWeather